Location: Berg
(48.4333°N, 13.9167°E)
Time: 07:43:44
(UTC+00:00)

ATLAS 3B R/B - Pass Details

Date: 18 September 2020
Orbit: 1016 x 1179 km, 63.8° (Epoch: 04 October)

Event Time Altitude Azimuth Distance (km) Brightness Sun altitude
Rises 19:31:38 0° 317° (NW) 3,811 6.9 -23.1°
Reaches altitude 10° 19:34:22 10° 324° (NW) 2,874 5.9 -23.5°
Maximum altitude 19:40:53 46° 37° (NE) 1,425 3.3 -24.4°
Enters shadow 19:42:49 37° 77° (ENE) 1,619 3.3 -24.7°
